Location: ??????????
(48.4699°N, 37.9573°E)
Time: 12:25:29
(UTC+00:00)

DMSP B5D1-3 - Pass Details

Date: 20 January 2021
Orbit: 767 x 780 km, 98.5° (Epoch: 27 February)

Event Time Altitude Azimuth Distance (km) Brightness Sun altitude
Exits shadow 16:21:08 25° 23° (NNE) 1,518 5.8 -21.6°
Maximum altitude 16:24:08 71° 103° (ESE) 813 4.4 -22.1°
Drops below altitude 10° 16:29:12 10° 188° (S) 2,304 7.1 -23.0°
Sets 16:31:30 0° 190° (S) 3,228 7.9 -23.3°
